Location: Slanting_Bridge
(35.6330°N, 80.9830°W)
Time: 10:07:51
(UTC-05:00)

Amateur Radio Satellites - All Passes

Search period start: 19 January 2018 09:37
Search period end: 20 January 2018 09:37
Location: Slanting_Bridge, 35.6330°N, 80.9830°W

Satellite Date Start Highest point End Downlink Frequencies (MHz)
Time Altitude Azimuth
O/OREOS (USA 219) 19 Jan 09:49:03 09:50:28 11° 56° (ENE) 09:51:54 437.305
EO-88 19 Jan 09:51:58 09:55:05 27° 97° (E) 09:58:10 145.990 - 145.960
ZACube-1 19 Jan 09:56:57 09:58:03 11° 296° (WNW) 09:59:08 437.345
DELFI C3 19 Jan 09:58:46 10:02:42 88° 271° (W) 10:06:37 145.870
AIST 2D 19 Jan 10:06:43 10:09:12 18° 71° (ENE) 10:11:41 435.315
PRISM 19 Jan 10:10:00 10:14:00 59° 75° (ENE) 10:18:00 437.425
BEESAT 2 19 Jan 10:15:08 10:18:11 21° 111° (ESE) 10:21:17 435.950
PCSat 19 Jan 10:30:55 10:36:19 78° 296° (WNW) 10:41:46 145.827
JUGNU 19 Jan 10:35:28 10:37:07 11° 167° (SSE) 10:38:47 437.505
QB50P2 19 Jan 10:38:52 10:41:41 18° 68° (ENE) 10:44:31 145.880/145.840
YUBILEINY 19 Jan 10:38:58 10:47:41 70° 82° (E) 10:56:19 435.215
TIGRISAT 19 Jan 10:47:05 10:48:54 12° 269° (W) 10:50:44 435.000
FALCONSAT 3 19 Jan 10:53:13 10:54:59 13° 211° (SSW) 10:56:45 435.103
ESTCUBE 1 19 Jan 10:58:57 11:02:05 19° 94° (E) 11:05:12 437.505/2401.250
Max Valier Satellite 19 Jan 11:02:36 11:05:17 19° 290° (WNW) 11:07:57 145.860
EO-79 19 Jan 11:09:19 11:13:07 35° 72° (ENE) 11:16:59 145.935-145.965
BEESAT 3 19 Jan 11:09:21 11:12:25 21° 308° (NW) 11:15:30 437.485
DUCHIFAT 1 19 Jan 11:10:48 11:14:20 27° 71° (ENE) 11:17:52 145.980
RS-15 19 Jan 11:12:33 11:22:33 28° 323° (NW) 11:32:27 29.354- 29.394
LO-87 19 Jan 11:16:59 11:20:24 37° 99° (E) 11:23:46 145.935 - 145.965
O/OREOS (USA 219) 19 Jan 11:25:52 11:30:18 64° 252° (WSW) 11:34:43 437.305
EO-88 19 Jan 11:26:18 11:28:26 15° 291° (WNW) 11:30:33 145.990 - 145.960
AIST 2D 19 Jan 11:39:30 11:42:12 20° 265° (W) 11:44:53 435.315
POLYITAN 1 19 Jan 11:43:19 11:47:32 88° 259° (W) 11:51:48 437.675
BEESAT 2 19 Jan 11:52:15 11:55:43 27° 306° (NW) 11:59:13 435.950
NANOSAT C BR1 19 Jan 12:00:49 12:04:57 61° 259° (W) 12:09:09 145.865
QB50P2 19 Jan 12:13:22 12:17:10 33° 262° (W) 12:21:01 145.880/145.840
AO-85 19 Jan 12:17:52 12:21:43 64° 117° (ESE) 12:25:49 145.980
PCSat 19 Jan 12:18:55 12:20:35 11° 315° (NW) 12:22:16 145.827
BUGSAT 1 19 Jan 12:19:09 12:22:49 34° 72° (ENE) 12:26:33 437.445
JUGNU 19 Jan 12:21:50 12:25:19 16° 177° (S) 12:28:50 437.505
ESTCUBE 1 19 Jan 12:34:53 12:38:55 34° 289° (WNW) 12:42:56 437.505/2401.250
YUBILEINY 19 Jan 12:37:34 12:43:31 21° 279° (W) 12:49:29 435.215
VELOX 1 19 Jan 12:42:15 12:46:10 31° 98° (E) 12:50:05 145.980
AO-7 19 Jan 12:43:51 12:44:54 10° 47° (NE) 12:45:57 .
Gurwin Techsat 1B 19 Jan 12:46:09 12:50:54 35° 70° (ENE) 12:55:41 435.225
EO-79 19 Jan 12:46:21 12:48:57 16° 266° (W) 12:51:34 145.935-145.965
DUCHIFAT 1 19 Jan 12:46:46 12:49:55 21° 265° (W) 12:53:06 145.980
LO-87 19 Jan 12:52:17 12:53:23 11° 293° (WNW) 12:54:29 145.935 - 145.965
SPROUT 19 Jan 12:52:49 12:57:08 86° 103° (ESE) 13:01:26 437.525
AO-91 19 Jan 12:56:36 12:59:54 53° 75° (ENE) 13:03:13 145.960
Oscar 19 19 Jan 13:13:51 13:19:03 88° 70° (ENE) 13:24:17 437.125/150
50 SAT 19 Jan 13:30:56 13:32:26 13° 95° (E) 13:33:55 437.505
RS-15 19 Jan 13:35:45 13:41:17 14° 358° (N) 13:46:44 29.354- 29.394
BUGSAT 1 19 Jan 13:55:55 13:58:15 15° 267° (W) 14:00:37 437.445
AO-85 19 Jan 14:01:11 14:02:38 12° 316° (NW) 14:04:05 145.980
SO-50 19 Jan 14:05:55 14:09:23 20° 49° (NE) 14:12:52 436.795
JUGNU 19 Jan 14:10:23 14:13:34 15° 187° (S) 14:16:45 437.505
ITAMSAT 1 19 Jan 14:18:28 14:21:47 18° 65° (ENE) 14:25:08 435.822/435.867
VELOX 1 19 Jan 14:19:11 14:22:22 20° 292° (WNW) 14:25:32 145.980
MOZHAYETS 4 19 Jan 14:21:41 14:23:23 12° 91° (E) 14:25:05
Gurwin Techsat 1B 19 Jan 14:26:32 14:30:50 25° 264° (W) 14:35:10 435.225
SRMSAT 19 Jan 14:27:23 14:30:37 15° 172° (S) 14:33:50 437.500
AO-7 19 Jan 14:27:45 14:35:48 56° 67° (ENE) 14:43:55 .
UKube-1 19 Jan 14:31:32 14:35:48 59° 101° (E) 14:40:02 .
DX 1 19 Jan 14:39:44 14:44:01 62° 285° (WNW) 14:48:17 434.975-435.025
50 SAT 19 Jan 15:01:41 15:04:06 21° 288° (WNW) 15:06:31 437.505
ITUPSAT 1 19 Jan 15:10:10 15:13:59 23° 96° (E) 15:17:46 437.325
SO-50 19 Jan 15:45:31 15:50:02 46° 245° (WSW) 15:54:36 436.795
BEESAT 19 Jan 15:50:15 15:55:01 65° 102° (ESE) 15:59:46 436.000
RS-15 19 Jan 15:50:46 16:00:07 26° 35° (NE) 16:09:03 29.354- 29.394
CUBESAT XI-V 19 Jan 15:55:14 15:59:20 31° 97° (E) 16:03:23 437.345
ITAMSAT 1 19 Jan 15:55:48 16:00:48 50° 259° (W) 16:05:50 435.822/435.867
MOZHAYETS 4 19 Jan 15:56:17 16:00:50 55° 286° (WNW) 16:05:18
M-CUBED/EXP-1 PRIME 19 Jan 16:07:44 16:12:10 75° 72° (ENE) 16:16:22 437.505
UKube-1 19 Jan 16:10:13 16:11:15 11° 296° (WNW) 16:12:16 .
SRMSAT 19 Jan 16:15:17 16:19:02 17° 182° (S) 16:22:47 437.500
AO-7 19 Jan 16:21:52 16:28:49 29° 263° (W) 16:35:51 .
XW-2B 19 Jan 16:37:55 16:38:53 11° 67° (ENE) 16:39:52 145.730 - 145.750
DOVE 4 19 Jan 16:39:34 16:43:57 71° 259° (W) 16:48:09 437.250
ITUPSAT 1 19 Jan 16:47:32 16:51:46 32° 290° (WNW) 16:56:00 437.325
LilacSat-2 19 Jan 17:01:27 17:04:37 24° 71° (ENE) 17:07:47 437.200
XW-2C 19 Jan 17:05:42 17:08:53 25° 72° (ENE) 17:12:04 145.795 - 145.815
CUTE-I 19 Jan 17:17:49 17:22:36 35° 70° (ENE) 17:27:23 437.470
NO-84 19 Jan 17:26:24 17:29:33 80° 311° (NW) 17:32:32 435.350 FM
BEESAT 19 Jan 17:30:21 17:32:10 12° 297° (WNW) 17:34:01 436.000
CUBESAT XI-V 19 Jan 17:32:58 17:36:28 22° 291° (WNW) 17:39:56 437.345
KKS-1 19 Jan 17:36:38 17:41:01 56° 101° (E) 17:45:23 437.445
XW-2F 19 Jan 17:42:54 17:46:41 73° 77° (ENE) 17:50:30 145.980 - 146.000
KAITUO 1B 19 Jan 17:44:02 17:47:42 54° 76° (ENE) 17:51:24 145.475/437.950
XW-2D 19 Jan 17:51:12 17:55:02 75° 259° (W) 17:58:52 145.860 - 145.880
STARS 19 Jan 17:57:15 18:01:17 34° 98° (E) 18:05:19 437.465
NUDT-PHONESAT 19 Jan 17:57:49 18:01:33 80° 76° (ENE) 18:05:17 437.300
HO-68 19 Jan 17:59:43 18:06:32 50° 69° (ENE) 18:13:22 435.675
RS-15 19 Jan 18:02:50 18:14:33 84° 61° (ENE) 18:25:37 29.354- 29.394
SRMSAT 19 Jan 18:05:01 18:07:25 12° 192° (SSW) 18:09:51 437.500
XW-2B 19 Jan 18:08:56 18:12:36 44° 261° (W) 18:16:17 145.730 - 145.750
AAUSAT CUBESAT 2 19 Jan 18:18:13 18:19:30 11° 66° (ENE) 18:20:47 437.432
SEEDS 19 Jan 18:28:56 18:32:52 39° 73° (ENE) 18:36:48 437.485
CUBEBUG 2 19 Jan 18:34:40 18:38:49 49° 74° (ENE) 18:43:09 437.445
LilacSat-2 19 Jan 18:36:03 18:38:48 19° 265° (W) 18:41:35 437.200
CUTE 1.7 + AOD 2 19 Jan 18:38:07 18:42:23 89° 244° (WSW) 18:46:41 437.475
XW-2C 19 Jan 18:40:20 18:42:59 18° 265° (W) 18:45:39 145.795 - 145.815
XW-2A 19 Jan 18:43:22 18:45:27 15° 70° (ENE) 18:47:33 145.665 - 145.685
UWE-3 19 Jan 18:43:27 18:47:22 33° 72° (ENE) 18:51:25 435.000/436.395/437.385
CUTE-I 19 Jan 18:58:21 19:02:39 25° 264° (W) 19:06:57 437.470
ZACube-1 19 Jan 19:10:26 19:14:25 34° 72° (ENE) 19:18:30 437.345
KKS-1 19 Jan 19:15:16 19:17:02 12° 295° (WNW) 19:18:48 437.445
AO-73 19 Jan 19:18:04 19:22:06 36° 72° (ENE) 19:26:14 145.935
PCSat 19 Jan 19:21:50 19:27:01 44° 58° (ENE) 19:32:10 145.827
BEESAT 3 19 Jan 19:27:20 19:31:14 87° 61° (ENE) 19:35:04 437.485
STARS 19 Jan 19:34:17 19:37:20 19° 293° (WNW) 19:40:22 437.465
HO-68 19 Jan 19:48:33 19:54:25 27° 264° (W) 20:00:20 435.675
AAUSAT CUBESAT 2 19 Jan 19:50:25 19:54:27 51° 261° (W) 19:58:29 437.432
Oscar 11 19 Jan 19:52:48 19:57:03 56° 75° (ENE) 20:01:20 .
STRAND 1 19 Jan 19:53:19 19:58:29 80° 103° (ESE) 20:03:38 437.568
SEEDS 19 Jan 20:06:25 20:08:40 14° 267° (W) 20:10:55 437.485
BEESAT 2 19 Jan 20:11:40 20:15:38 65° 59° (ENE) 20:19:33 435.950
nSIGHT-1 19 Jan 20:12:16 20:15:02 29° 132° (SE) 20:17:50 .
CUBEBUG 2 19 Jan 20:14:04 20:15:44 12° 269° (W) 20:17:25 437.445
XW-2A 19 Jan 20:15:10 20:17:55 23° 264° (W) 20:20:41 145.665 - 145.685
RS-15 19 Jan 20:17:38 20:25:20 21° 260° (W) 20:32:51 29.354- 29.394
ISS 19 Jan 20:19:49 20:22:28 23° 130° (SE) 20:25:08 437.550
UWE-3 19 Jan 20:20:51 20:23:53 18° 267° (W) 20:26:59 435.000/436.395/437.385
DELFI C3 19 Jan 20:40:54 20:44:22 31° 73° (ENE) 20:47:51 145.870
FO-29 19 Jan 20:41:07 20:46:20 88° 101° (E) 20:51:38 435.910
ZACube-1 19 Jan 20:47:42 20:50:45 18° 267° (W) 20:53:51 437.345
AO-85 19 Jan 20:51:00 20:55:22 30° 53° (NE) 20:59:57 145.980
AO-73 19 Jan 20:55:31 20:58:26 17° 267° (W) 21:01:22 145.935
TIGRISAT 19 Jan 21:03:27 21:05:56 14° 92° (E) 21:08:25 435.000
PCSat 19 Jan 21:06:01 21:10:03 22° 254° (WSW) 21:14:05 145.827
UNISAT 6 19 Jan 21:17:19 21:21:01 23° 95° (E) 21:24:42 437.425
Oscar 11 19 Jan 21:32:45 21:33:29 10° 269° (W) 21:34:11 .
STRAND 1 19 Jan 21:35:31 21:36:56 11° 298° (WNW) 21:38:20 437.568
Max Valier Satellite 19 Jan 21:36:52 21:40:35 71° 259° (WSW) 21:44:20 145.860
YUBILEINY 19 Jan 21:44:37 21:48:52 15° 78° (ENE) 21:53:07 435.215
nSIGHT-1 19 Jan 21:48:38 21:51:12 23° 327° (NNW) 21:53:47 .
ISS 19 Jan 21:55:58 21:58:50 28° 325° (NW) 22:01:44 437.550
ESTCUBE 1 19 Jan 21:56:45 21:58:47 13° 65° (ENE) 22:00:50 437.505/2401.250
EO-88 19 Jan 21:59:02 22:02:37 55° 260° (W) 22:06:13 145.990 - 145.960
DELFI C3 19 Jan 22:16:52 22:19:09 15° 266° (W) 22:21:25 145.870
AO-85 19 Jan 22:31:14 22:35:48 34° 247° (WSW) 22:40:33 145.980
TIGRISAT 19 Jan 22:38:17 22:42:49 49° 286° (WNW) 22:47:20 435.000
UNISAT 6 19 Jan 22:53:33 22:57:41 31° 289° (WNW) 23:01:47 437.425
AIST 2D 19 Jan 23:06:14 23:09:21 30° 98° (E) 23:12:26 435.315
LO-87 19 Jan 23:22:40 23:26:00 40° 261° (W) 23:29:24 145.935 - 145.965
PRISM 19 Jan 23:28:57 23:32:55 53° 285° (WNW) 23:36:53 437.425
ESTCUBE 1 19 Jan 23:30:40 23:35:05 54° 260° (W) 23:39:32 437.505/2401.250
POLYITAN 1 19 Jan 23:31:49 23:34:50 19° 94° (E) 23:37:50 437.675
YUBILEINY 19 Jan 23:35:27 23:44:18 88° 98° (E) 23:53:09 435.215
VELOX 1 19 Jan 23:37:04 23:40:15 20° 68° (ENE) 23:43:27 145.980
SPROUT 19 Jan 23:42:51 23:46:50 42° 73° (ENE) 23:50:51 437.525
NANOSAT C BR1 19 Jan 23:48:13 23:51:46 25° 96° (E) 23:55:17 145.865
O/OREOS (USA 219) 19 Jan 23:57:04 00:00:25 21° 101° (E) 00:03:44 437.305
QB50P2 20 Jan 00:00:29 00:04:37 46° 99° (E) 00:08:44 145.880/145.840
NO-84 20 Jan 00:02:05 00:03:26 13° 36° (NE) 00:04:50 435.350 FM
EO-79 20 Jan 00:31:45 00:36:02 81° 283° (WNW) 00:40:18 145.935-145.965
DUCHIFAT 1 20 Jan 00:32:06 00:36:22 75° 102° (ESE) 00:40:36 145.980
AIST 2D 20 Jan 00:40:50 00:42:10 12° 292° (WNW) 00:43:30 435.315
AO-91 20 Jan 00:48:24 00:51:25 17° 95° (E) 00:54:35 145.960
Gurwin Techsat 1B 20 Jan 01:06:11 01:09:36 17° 93° (E) 01:12:59 435.225
POLYITAN 1 20 Jan 01:06:49 01:10:37 31° 289° (WNW) 01:14:23 437.675
VELOX 1 20 Jan 01:12:34 01:16:27 31° 262° (W) 01:20:21 145.980
SPROUT 20 Jan 01:20:50 01:22:52 13° 267° (W) 01:24:56 437.525
50 SAT 20 Jan 01:22:20 01:25:17 46° 75° (ENE) 01:28:16 437.505
UKube-1 20 Jan 01:23:00 01:26:51 33° 71° (ENE) 01:30:42 .
NANOSAT C BR1 20 Jan 01:23:57 01:27:19 23° 290° (WNW) 01:30:40 145.865
Oscar 19 20 Jan 01:28:40 01:33:30 39° 98° (E) 01:38:16 437.125/150
DX 1 20 Jan 01:31:49 01:36:07 76° 75° (ENE) 01:40:27 434.975-435.025
O/OREOS (USA 219) 20 Jan 01:35:34 01:39:34 31° 296° (WNW) 01:43:34 437.305
YUBILEINY 20 Jan 01:36:58 01:42:13 17° 294° (WNW) 01:47:29 435.215
QB50P2 20 Jan 01:37:55 01:39:57 13° 294° (WNW) 01:41:58 145.880/145.840
NO-84 20 Jan 01:37:55 01:40:44 43° 230° (SW) 01:43:42 435.350 FM
BUGSAT 1 20 Jan 01:38:09 01:42:24 88° 285° (WNW) 01:46:39 437.445
ITUPSAT 1 20 Jan 02:14:25 02:17:51 20° 67° (ENE) 02:21:19 437.325
AO-91 20 Jan 02:23:37 02:27:52 42° 286° (WNW) 02:32:31 145.960
AO-7 20 Jan 02:34:12 02:40:00 20° 94° (E) 02:45:44 .
nSIGHT-1 20 Jan 02:41:41 02:43:27 14° 27° (NNE) 02:45:13 .
Gurwin Techsat 1B 20 Jan 02:44:38 02:49:46 50° 288° (WNW) 02:54:52 435.225
ISS 20 Jan 02:50:27 02:52:01 13° 25° (NNE) 02:53:35 437.550
BEESAT 20 Jan 02:53:29 02:58:05 53° 73° (ENE) 03:02:44 436.000
MOZHAYETS 4 20 Jan 02:54:35 02:59:12 84° 260° (W) 03:03:52
CUBESAT XI-V 20 Jan 02:55:47 02:59:28 23° 69° (ENE) 03:03:07 437.345
UKube-1 20 Jan 03:00:03 03:02:54 17° 265° (W) 03:05:46 .
Oscar 19 20 Jan 03:08:37 03:12:31 22° 293° (WNW) 03:16:23 437.125/150
FALCONSAT 3 20 Jan 03:42:34 03:45:20 20° 153° (SSE) 03:48:07 435.103
ITUPSAT 1 20 Jan 03:50:58 03:55:22 37° 261° (W) 03:59:48 437.325
ITAMSAT 1 20 Jan 04:11:18 04:16:31 72° 103° (ESE) 04:21:42 435.822/435.867
nSIGHT-1 20 Jan 04:16:46 04:19:56 71° 224° (SW) 04:23:06 .
AO-7 20 Jan 04:25:01 04:33:22 75° 290° (WNW) 04:41:39 .
ISS 20 Jan 04:25:38 04:28:55 88° 52° (NE) 04:32:11 437.550
KKS-1 20 Jan 04:31:45 04:35:44 35° 71° (ENE) 04:39:45 437.445
CUBESAT XI-V 20 Jan 04:32:29 04:36:37 31° 263° (W) 04:40:46 437.345
BEESAT 20 Jan 04:33:52 04:36:07 13° 268° (W) 04:38:23 436.000
DOVE 4 20 Jan 04:40:34 04:44:36 35° 98° (E) 04:48:50 437.250
STARS 20 Jan 04:51:22 04:54:40 22° 68° (ENE) 04:57:59 437.465
FALCONSAT 3 20 Jan 05:20:27 05:24:04 62° 167° (SSE) 05:27:43 435.103
M-CUBED/EXP-1 PRIME 20 Jan 05:23:20 05:26:40 85° 110° (ESE) 05:29:54 437.505
XW-2D 20 Jan 05:27:59 05:29:49 13° 93° (E) 05:31:39 145.860 - 145.880
CUTE-I 20 Jan 05:38:34 05:42:03 18° 93° (E) 05:45:33 437.470
XW-2B 20 Jan 05:44:37 05:47:30 21° 95° (E) 05:50:22 145.730 - 145.750
ITAMSAT 1 20 Jan 05:53:07 05:55:18 13° 298° (WNW) 05:57:30 435.822/435.867
SO-50 20 Jan 05:56:34 06:00:59 70° 300° (WNW) 06:05:30 436.795
KKS-1 20 Jan 06:09:24 06:12:21 17° 266° (W) 06:15:19 437.445
LilacSat-2 20 Jan 06:10:45 06:14:28 53° 100° (E) 06:18:08 437.200
XW-2C 20 Jan 06:14:13 06:17:55 54° 100° (E) 06:21:34 145.795 - 145.815
RS-15 20 Jan 06:15:49 06:21:46 15° 97° (E) 06:27:40 29.354- 29.394
DOVE 4 20 Jan 06:19:05 06:22:03 18° 291° (WNW) 06:25:06 437.250
AO-7 20 Jan 06:20:30 06:24:42 15° 309° (NW) 06:28:56 .
CUTE 1.7 + AOD 2 20 Jan 06:26:42 06:29:43 19° 94° (E) 06:32:42 437.475
STARS 20 Jan 06:27:04 06:30:49 28° 263° (W) 06:34:35 437.465
CUBEBUG 2 20 Jan 06:29:29 06:32:09 15° 92° (E) 06:34:49 437.445
FO-29 20 Jan 06:49:53 06:55:42 30° 69° (ENE) 07:00:59 435.910
KAITUO 1B 20 Jan 06:51:26 06:55:05 66° 284° (WNW) 06:58:43 145.475/437.950
XW-2F 20 Jan 06:51:36 06:55:11 47° 285° (WNW) 06:58:46 145.980 - 146.000
FALCONSAT 3 20 Jan 06:59:26 07:03:07 89° 179° (S) 07:06:47 435.103
XW-2D 20 Jan 07:00:41 07:04:03 32° 287° (WNW) 07:07:23 145.860 - 145.880
NUDT-PHONESAT 20 Jan 07:04:15 07:07:46 46° 285° (WNW) 07:11:16 437.300
STRAND 1 20 Jan 07:06:07 07:11:12 83° 76° (ENE) 07:16:20 437.568
CUTE-I 20 Jan 07:17:11 07:22:19 49° 288° (WNW) 07:27:25 437.470
HO-68 20 Jan 07:17:43 07:24:52 69° 104° (ESE) 07:31:59 435.675
XW-2B 20 Jan 07:18:42 07:21:32 20° 290° (WNW) 07:24:20 145.730 - 145.750
AAUSAT CUBESAT 2 20 Jan 07:35:24 07:38:57 28° 97° (E) 07:42:29 437.432
XW-2A 20 Jan 07:39:04 07:41:44 22° 96° (E) 07:44:23 145.665 - 145.685
Oscar 11 20 Jan 07:44:41 07:46:39 13° 92° (E) 07:48:37 .
SEEDS 20 Jan 07:50:38 07:54:46 68° 283° (WNW) 07:58:52 437.485
CUTE 1.7 + AOD 2 20 Jan 08:01:54 08:05:31 29° 289° (WNW) 08:09:07 437.475
CUBEBUG 2 20 Jan 08:04:23 08:08:58 48° 286° (WNW) 08:13:30 437.445
UWE-3 20 Jan 08:11:29 08:16:09 73° 284° (WNW) 08:20:44 435.000/436.395/437.385
UNISAT 6 20 Jan 08:14:30 08:16:43 14° 65° (ENE) 08:18:57 437.425
RS-15 20 Jan 08:19:56 08:32:11 76° 114° (ESE) 08:44:21 29.354- 29.394
FO-29 20 Jan 08:33:55 08:40:34 42° 261° (W) 08:46:32 435.910
ZACube-1 20 Jan 08:37:09 08:41:43 74° 284° (WNW) 08:46:09 437.345
FALCONSAT 3 20 Jan 08:38:33 08:42:06 49° 197° (SSW) 08:45:39 435.103
AO-73 20 Jan 08:44:29 08:49:00 70° 285° (WNW) 08:53:24 145.935
HO-68 20 Jan 09:06:54 09:11:53 21° 300° (WNW) 09:16:52 435.675
Max Valier Satellite 20 Jan 09:11:11 09:12:45 12° 93° (E) 09:14:20 145.860
AAUSAT CUBESAT 2 20 Jan 09:11:17 09:14:10 19° 291° (WNW) 09:17:03 437.432
XW-2A 20 Jan 09:12:13 09:14:11 15° 290° (WNW) 09:16:09 145.665 - 145.685
BEESAT 3 20 Jan 09:13:50 09:17:14 28° 112° (ESE) 09:20:39 437.485
Oscar 11 20 Jan 09:18:52 09:22:59 44° 286° (WNW) 09:27:04 .
EO-88 20 Jan 09:31:28 09:33:27 14° 94° (E) 09:35:25 145.990 - 145.960
